Terug naar catalogus

STARLINK-37728

ActiefCommunicatieSSO
NORAD 69221·PAYLOAD·🇺🇸 United States

Gelanceerd May 26, 2026 vanaf Vandenberg Space Force Base

Loading…

Volgende Passages (komende 24 uur)

TLE

VersSource: CelesTrak SupGP

Epoch: Sep 14, 2026, 23:33 UTC

1 69221C 26115L   26257.98173611  .00079199  00000+0  24573-2 0  2577
2 69221  97.2834 274.1503 0001575  98.5919 284.6717 15.33414387    11

Volg STARLINK-37728 in realtime met AllMySat

Download on the App Store